Location: Hylvaty SDH
(49.9612°N, 16.4057°E)
Time: 12:36:56
(UTC+01:00)

A-11 Canister half - Pass Details

Date: 03 October 2020
Orbit: 1526 x 1683 km, 47.3° (Epoch: 28 October)

Event Time Altitude Azimuth Distance (km) Brightness Sun altitude
Rises 03:43:35 0° 286° (WNW) 4,710 - -30.5°
Reaches altitude 10° 03:46:43 10° 281° (W) 3,740 - -30.1°
Maximum altitude 03:55:41 50° 210° (SSW) 1,948 - -28.9°
Exits shadow 03:55:47 50° 208° (SSW) 1,949 9.1 -28.9°
Drops below altitude 10° 04:04:55 10° 139° (SE) 3,845 11.2 -27.6°
Sets 04:08:12 0° 134° (SE) 4,850 11.8 -27.2°
